Cloud_Cover
0 0 0 0 0 0 0 4 0 0 0 0 0 0 0 0 0 0 0 0 0 0 0 0 0 0 0 0 0 0 0 0 0 0 0 0 0 0 0 0 0 5 0 4 5 0 0 0 0
0 0 0 0 0 0 2 22 5 0 0 0 0 0 0 0 0 0 0 0 0 0 0 0 0 0 0 0 0 0 3 0 0 0 0 0 0 0 0 0 0 0 0 0 7 73 58 5 18
100 100 45 61 54 2 16 100 5 0 0 82 5 4 0 0 0 0 5 1 0 0 0 0 0 0 0 0 0 0 3 8 0 0 0 0 0 0 0 0 1 1 2 5 19 80 100 100 100
100 100 99 100 100 46 44 100 7 0 0 5 5 5 2 0 4 3 5 5 2 2 0 24 0 0 0 0 0 0 0 54 0 0 0 0 0 0 0 0 0 98 5 5 96 100 100 100 100
99 13 42 42 45 100 100 100 2 36 5 85 99 25 8 5 1 1 35 82 100 18 0 0 0 0 0 0 0 7 11 0 0 0 0 0 0 0 2 5 4 100 70 6 100 100 100 100 100
100 83 24 59 93 93 100 83 77 0 13 77 100 100 93 5 6 4 71 100 100 24 5 4 5 0 0 0 0 0 7 0 38 98 25 2 0 0 4 96 9 52 12 64 100 100 100 100 100
99 100 100 100 100 100 100 100 5 16 96 26 100 81 90 9 5 5 96 78 61 6 5 21 0 0 0 0 0 0 0 0 83 100 50 0 0 0 0 5 10 45 5 27 100 100 100 100 100
100 100 100 100 100 72 96 100 8 4 78 100 36 51 68 5 27 100 33 87 100 100 5 68 5 5 5 0 7 0 0 0 0 6 0 0 0 0 0 0 2 0 0 1 91 100 100 100 100
5 4 20 40 56 90 100 100 61 97 100 100 19 26 11 88 52 100 73 100 100 100 5 34 9 0 5 0 0 43 4 1 8 1 2 67 0 0 0 0 0 0 1 0 5 43 100 100 100
0 0 0 0 2 5 39 100 1 59 99 89 40 24 59 13 94 100 100 100 100 100 5 9 53 5 1 0 0 0 0 0 0 0 0 0 0 0 3 24 0 4 1 2 70 23 28 100 100
0 0 0 0 5 8 5 7 0 67 8 28 4 24 100 100 100 98 100 100 100 100 17 20 12 5 3 2 0 0 0 0 45 0 0 0 0 0 0 100 95 5 5 6 35 6 4 100 100
0 2 0 0 5 5 3 3 0 94 0 3 2 0 37 100 100 100 100 91 100 100 100 57 25 5 2 0 0 0 0 0 0 0 1 0 0 0 0 7 11 5 23 4 34 0 2 100 100
0 14 5 0 5 5 0 0 0 10 57 67 100 66 7 67 100 100 100 87 76 100 100 100 17 5 3 1 0 0 0 6 0 0 0 0 0 0 0 3 4 4 33 4 2 0 21 34 100
92 8 5 5 3 1 2 0 0 0 0 0 16 27 2 0 95 100 100 100 100 100 100 100 59 8 0 0 0 1 4 0 0 0 80 0 0 0 0 3 0 2 3 0 0 7 39 80 100
52 94 5 4 5 0 5 0 0 1 0 0 0 1 46 6 90 100 100 100 100 100 100 100 47 22 43 4 5 5 5 2 0 0 98 100 12 0 0 1 0 0 0 0 5 9 36 99 97
5 41 5 3 5 4 58 0 5 36 60 0 0 0 5 5 30 100 100 100 100 100 100 21 61 16 28 5 5 1 0 3 0 0 40 100 68 16 9 51 100 10 0 16 28 4 97 99 100
70 16 1 36 5 27 49 1 5 83 92 5 0 0 4 44 55 71 100 100 100 100 100 5 91 100 100 63 5 2 1 1 0 0 0 100 71 2 32 13 9 25 43 20 23 54 64 100 100
0 4 51 5 44 57 26 1 5 20 66 5 4 4 2 3 42 100 100 100 100 100 100 97 100 100 100 70 17 2 5 0 0 3 3 4 44 2 0 10 20 60 91 100 77 88 94 100 100
6 100 100 12 70 100 85 72 5 46 96 2 0 0 53 10 87 100 100 100 100 100 100 100 100 100 100 69 5 8 5 5 31 31 5 2 37 0 0 1 86 100 79 100 100 100 100 100 100
5 100 98 93 86 100 100 97 100 27 5 5 3 3 17 100 96 67 40 93 100 100 100 100 100 100 100 6 5 4 29 100 9 5 4 5 5 0 0 3 97 46 100 100 100 100 100 100 100
6 45 100 26 100 100 100 92 89 54 71 98 68 5 5 45 100 96 77 100 100 100 100 100 100 100 100 64 5 24 58 11 11 9 1 5 3 1 0 5 93 41 100 100 100 100 100 100 100
95 99 100 100 100 100 100 42 5 96 99 40 8 81 74 5 42 100 100 100 99 85 100 100 100 100 100 100 14 14 5 20 8 5 53 22 1 0 0 6 100 80 99 71 100 100 100 100 100
7 100 100 100 100 43 100 42 60 100 94 64 15 36 5 96 59 78 98 100 100 100 100 100 100 100 100 100 100 11 25 6 5 5 8 28 5 0 0 100 92 83 100 57 98 100 100 100 100
100 100 100 90 100 99 4 21 5 100 100 100 79 74 63 74 74 50 83 100 100 100 100 100 81 87 33 42 59 5 4 4 5 5 12 5 26 76 81 36 94 100 100 68 97 100 100 100 100
100 100 84 100 100 17 2 56 36 100 100 96 52 96 100 100 100 100 100 100 100 99 56 12 5 5 6 54 23 4 5 8 5 5 34 9 1 8 97 98 75 96 100 57 76 100 100 100 100
5 80 100 56 34 36 99 92 99 100 100 100 52 98 100 100 100 100 100 100 100 100 100 96 64 5 16 5 5 4 5 42 6 5 59 63 3 0 5 7 62 100 100 99 68 100 100 100 100
84 100 100 100 100 100 100 100 100 91 100 100 92 100 100 100 100 100 100 100 100 100 100 100 99 30 28 8 71 11 3 60 6 56 5 7 4 3 5 97 69 73 83 87 87 97 100 100 100
100 100 100 100 100 100 100 100 100 100 100 100 92 100 100 100 100 100 100 100 100 100 100 71 40 43 5 5 13 3 0 67 72 100 0 35 3 4 20 8 80 71 80 100 100 100 100 100 100
100 100 100 100 100 100 100 100 100 100 100 100 100 100 70 92 100 100 93 100 100 100 100 100 62 19 11 5 11 4 0 100 100 100 53 96 1 5 33 55 48 97 100 100 100 100 100 100 100
100 100 100 100 100 100 100 100 100 100 100 100 100 100 33 5 69 93 77 96 100 100 100 100 91 46 26 5 8 7 88 100 100 100 78 96 2 71 35 100 98 87 100 100 100 100 100 100 100